Year,Month,Day,Hour,Minute,Value (Times are PST for insolation in W/m^2)
2017,11,09,00,00,0.00
2017,11,09,00,01,0.00
2017,11,09,00,02,0.00
2017,11,09,00,03,0.00
2017,11,09,00,04,0.00
2017,11,09,00,05,0.00
2017,11,09,00,06,0.00
2017,11,09,00,07,0.00
2017,11,09,00,08,0.00
2017,11,09,00,09,0.00
2017,11,09,00,10,0.00
2017,11,09,00,11,0.00
2017,11,09,00,12,0.00
2017,11,09,00,13,0.00
2017,11,09,00,14,0.00
2017,11,09,00,15,0.00
2017,11,09,00,16,0.00
2017,11,09,00,17,0.00
2017,11,09,00,18,0.00
2017,11,09,00,19,0.00
2017,11,09,00,20,0.00
2017,11,09,00,21,0.00
2017,11,09,00,22,0.00
2017,11,09,00,23,0.00
2017,11,09,00,24,0.00
2017,11,09,00,25,0.00
2017,11,09,00,26,0.00
2017,11,09,00,27,0.00
2017,11,09,00,28,0.00
2017,11,09,00,29,0.00
2017,11,09,00,30,0.00
2017,11,09,00,31,0.00
2017,11,09,00,32,0.00
2017,11,09,00,33,0.00
2017,11,09,00,34,0.00
2017,11,09,00,35,0.00
2017,11,09,00,36,0.00
2017,11,09,00,37,0.00
2017,11,09,00,38,0.00
2017,11,09,00,39,0.00
2017,11,09,00,40,0.00
2017,11,09,00,41,0.00
2017,11,09,00,42,0.00
2017,11,09,00,43,0.00
2017,11,09,00,44,0.00
2017,11,09,00,45,0.00
2017,11,09,00,46,0.00
2017,11,09,00,47,0.00
2017,11,09,00,48,0.00
2017,11,09,00,49,0.00
2017,11,09,00,50,0.00
2017,11,09,00,51,0.00
2017,11,09,00,52,0.00
2017,11,09,00,53,0.00
2017,11,09,00,54,0.00
2017,11,09,00,55,0.00
2017,11,09,00,56,0.00
2017,11,09,00,57,0.00
2017,11,09,00,58,0.00
2017,11,09,00,59,0.00
2017,11,09,01,00,0.00
2017,11,09,01,01,0.00
2017,11,09,01,02,0.00
2017,11,09,01,03,0.00
2017,11,09,01,04,0.00
2017,11,09,01,05,0.00
2017,11,09,01,06,0.00
2017,11,09,01,07,0.00
2017,11,09,01,08,0.00
2017,11,09,01,09,0.00
2017,11,09,01,10,0.00
2017,11,09,01,11,0.00
2017,11,09,01,12,0.00
2017,11,09,01,13,0.00
2017,11,09,01,14,0.00
2017,11,09,01,15,0.00
2017,11,09,01,16,0.00
2017,11,09,01,17,0.00
2017,11,09,01,18,0.00
2017,11,09,01,19,0.00
2017,11,09,01,20,0.00
2017,11,09,01,21,0.00
2017,11,09,01,22,0.00
2017,11,09,01,23,0.00
2017,11,09,01,24,0.00
2017,11,09,01,25,0.00
2017,11,09,01,26,0.00
2017,11,09,01,27,0.00
2017,11,09,01,28,0.00
2017,11,09,01,29,0.00
2017,11,09,01,30,0.00
2017,11,09,01,31,0.00
2017,11,09,01,32,0.00
2017,11,09,01,33,0.00
2017,11,09,01,34,0.00
2017,11,09,01,35,0.00
2017,11,09,01,36,0.00
2017,11,09,01,37,0.00
2017,11,09,01,38,0.00
2017,11,09,01,39,0.00
2017,11,09,01,40,0.00
2017,11,09,01,41,0.00
2017,11,09,01,42,0.00
2017,11,09,01,43,0.00
2017,11,09,01,44,0.00
2017,11,09,01,45,0.00
2017,11,09,01,46,0.00
2017,11,09,01,47,0.00
2017,11,09,01,48,0.00
2017,11,09,01,49,0.00
2017,11,09,01,50,0.00
2017,11,09,01,51,0.00
2017,11,09,01,52,0.00
2017,11,09,01,53,0.00
2017,11,09,01,54,0.00
2017,11,09,01,55,0.00
2017,11,09,01,56,0.00
2017,11,09,01,57,0.00
2017,11,09,01,58,0.00
2017,11,09,01,59,0.00
2017,11,09,02,00,0.00
2017,11,09,02,01,0.00
2017,11,09,02,02,0.00
2017,11,09,02,03,0.00
2017,11,09,02,04,0.00
2017,11,09,02,05,0.00
2017,11,09,02,06,0.00
2017,11,09,02,07,0.00
2017,11,09,02,08,0.00
2017,11,09,02,09,0.00
2017,11,09,02,10,0.00
2017,11,09,02,11,0.00
2017,11,09,02,12,0.00
2017,11,09,02,13,0.00
2017,11,09,02,14,0.00
2017,11,09,02,15,0.00
2017,11,09,02,16,0.00
2017,11,09,02,17,0.00
2017,11,09,02,18,0.00
2017,11,09,02,19,0.00
2017,11,09,02,20,0.00
2017,11,09,02,21,0.00
2017,11,09,02,22,0.00
2017,11,09,02,23,0.00
2017,11,09,02,24,0.00
2017,11,09,02,25,0.00
2017,11,09,02,26,0.00
2017,11,09,02,27,0.00
2017,11,09,02,28,0.00
2017,11,09,02,29,0.00
2017,11,09,02,30,0.00
2017,11,09,02,31,0.00
2017,11,09,02,32,0.00
2017,11,09,02,33,0.00
2017,11,09,02,34,0.00
2017,11,09,02,35,0.00
2017,11,09,02,36,0.00
2017,11,09,02,37,0.00
2017,11,09,02,38,0.00
2017,11,09,02,39,0.00
2017,11,09,02,40,0.00
2017,11,09,02,41,0.00
2017,11,09,02,42,0.00
2017,11,09,02,43,0.00
2017,11,09,02,44,0.00
2017,11,09,02,45,0.00
2017,11,09,02,46,0.00
2017,11,09,02,47,0.00
2017,11,09,02,48,0.00
2017,11,09,02,49,0.00
2017,11,09,02,50,0.00
2017,11,09,02,51,0.00
2017,11,09,02,52,0.00
2017,11,09,02,53,0.00
2017,11,09,02,54,0.00
2017,11,09,02,55,0.00
2017,11,09,02,56,0.00
2017,11,09,02,57,0.00
2017,11,09,02,58,0.00
2017,11,09,02,59,0.00
2017,11,09,03,00,0.00
2017,11,09,03,01,0.00
2017,11,09,03,02,0.00
2017,11,09,03,03,0.00
2017,11,09,03,04,0.00
2017,11,09,03,05,0.00
2017,11,09,03,06,0.00
2017,11,09,03,07,0.00
2017,11,09,03,08,0.00
2017,11,09,03,09,0.00
2017,11,09,03,10,0.00
2017,11,09,03,11,0.00
2017,11,09,03,12,0.00
2017,11,09,03,13,0.00
2017,11,09,03,14,0.00
2017,11,09,03,15,0.00
2017,11,09,03,16,0.00
2017,11,09,03,17,0.00
2017,11,09,03,18,0.00
2017,11,09,03,19,0.00
2017,11,09,03,20,0.00
2017,11,09,03,21,0.00
2017,11,09,03,22,0.00
2017,11,09,03,23,0.00
2017,11,09,03,24,0.00
2017,11,09,03,25,0.00
2017,11,09,03,26,0.00
2017,11,09,03,27,0.00
2017,11,09,03,28,0.00
2017,11,09,03,29,0.00
2017,11,09,03,30,0.00
2017,11,09,03,31,0.00
2017,11,09,03,32,0.00
2017,11,09,03,33,0.00
2017,11,09,03,34,0.00
2017,11,09,03,35,0.00
2017,11,09,03,36,0.00
2017,11,09,03,37,0.00
2017,11,09,03,38,0.00
2017,11,09,03,39,0.00
2017,11,09,03,40,0.00
2017,11,09,03,41,0.00
2017,11,09,03,42,0.00
2017,11,09,03,43,0.00
2017,11,09,03,44,0.00
2017,11,09,03,45,0.00
2017,11,09,03,46,0.00
2017,11,09,03,47,0.00
2017,11,09,03,48,0.00
2017,11,09,03,49,0.00
2017,11,09,03,50,0.00
2017,11,09,03,51,0.00
2017,11,09,03,52,0.00
2017,11,09,03,53,0.00
2017,11,09,03,54,0.00
2017,11,09,03,55,0.00
2017,11,09,03,56,0.00
2017,11,09,03,57,0.00
2017,11,09,03,58,0.00
2017,11,09,03,59,0.00
2017,11,09,04,00,0.00
2017,11,09,04,01,0.00
2017,11,09,04,02,0.00
2017,11,09,04,03,0.00
2017,11,09,04,04,0.00
2017,11,09,04,05,0.00
2017,11,09,04,06,0.00
2017,11,09,04,07,0.00
2017,11,09,04,08,0.00
2017,11,09,04,09,0.00
2017,11,09,04,10,0.00
2017,11,09,04,11,0.00
2017,11,09,04,12,0.00
2017,11,09,04,13,0.00
2017,11,09,04,14,0.00
2017,11,09,04,15,0.00
2017,11,09,04,16,0.00
2017,11,09,04,17,0.00
2017,11,09,04,18,0.00
2017,11,09,04,19,0.00
2017,11,09,04,20,0.00
2017,11,09,04,21,0.00
2017,11,09,04,22,0.00
2017,11,09,04,23,0.00
2017,11,09,04,24,0.00
2017,11,09,04,25,0.00
2017,11,09,04,26,0.00
2017,11,09,04,27,0.00
2017,11,09,04,28,0.00
2017,11,09,04,29,0.00
2017,11,09,04,30,0.00
2017,11,09,04,31,0.00
2017,11,09,04,32,0.00
2017,11,09,04,33,0.00
2017,11,09,04,34,0.00
2017,11,09,04,35,0.00
2017,11,09,04,36,0.00
2017,11,09,04,37,0.00
2017,11,09,04,38,0.00
2017,11,09,04,39,0.00
2017,11,09,04,40,0.00
2017,11,09,04,41,0.00
2017,11,09,04,42,0.00
2017,11,09,04,43,0.00
2017,11,09,04,44,0.00
2017,11,09,04,45,0.00
2017,11,09,04,46,0.00
2017,11,09,04,47,0.00
2017,11,09,04,48,0.00
2017,11,09,04,49,0.00
2017,11,09,04,50,0.00
2017,11,09,04,51,0.00
2017,11,09,04,52,0.00
2017,11,09,04,53,0.00
2017,11,09,04,54,0.00
2017,11,09,04,55,0.00
2017,11,09,04,56,0.00
2017,11,09,04,57,0.00
2017,11,09,04,58,0.00
2017,11,09,04,59,0.00
2017,11,09,05,00,0.00
2017,11,09,05,01,0.00
2017,11,09,05,02,0.00
2017,11,09,05,03,0.00
2017,11,09,05,04,0.00
2017,11,09,05,05,0.00
2017,11,09,05,06,0.00
2017,11,09,05,07,0.00
2017,11,09,05,08,0.00
2017,11,09,05,09,0.00
2017,11,09,05,10,0.00
2017,11,09,05,11,0.00
2017,11,09,05,12,0.00
2017,11,09,05,13,0.00
2017,11,09,05,14,0.00
2017,11,09,05,15,0.00
2017,11,09,05,16,0.00
2017,11,09,05,17,0.00
2017,11,09,05,18,0.00
2017,11,09,05,19,0.00
2017,11,09,05,20,0.00
2017,11,09,05,21,0.00
2017,11,09,05,22,0.00
2017,11,09,05,23,0.00
2017,11,09,05,24,0.00
2017,11,09,05,25,0.00
2017,11,09,05,26,0.00
2017,11,09,05,27,0.00
2017,11,09,05,28,0.00
2017,11,09,05,29,0.00
2017,11,09,05,30,0.00
2017,11,09,05,31,0.00
2017,11,09,05,32,0.00
2017,11,09,05,33,0.00
2017,11,09,05,34,0.00
2017,11,09,05,35,0.00
2017,11,09,05,36,0.00
2017,11,09,05,37,0.00
2017,11,09,05,38,0.00
2017,11,09,05,39,0.00
2017,11,09,05,40,0.00
2017,11,09,05,41,0.00
2017,11,09,05,42,0.00
2017,11,09,05,43,0.00
2017,11,09,05,44,0.00
2017,11,09,05,45,0.00
2017,11,09,05,46,0.00
2017,11,09,05,47,0.00
2017,11,09,05,48,0.00
2017,11,09,05,49,0.00
2017,11,09,05,50,0.00
2017,11,09,05,51,0.00
2017,11,09,05,52,0.00
2017,11,09,05,53,0.00
2017,11,09,05,54,0.00
2017,11,09,05,55,0.00
2017,11,09,05,56,0.00
2017,11,09,05,57,0.00
2017,11,09,05,58,0.00
2017,11,09,05,59,0.00
2017,11,09,06,00,0.00
2017,11,09,06,01,0.00
2017,11,09,06,02,0.00
2017,11,09,06,03,0.00
2017,11,09,06,04,0.00
2017,11,09,06,05,0.00
2017,11,09,06,06,0.00
2017,11,09,06,07,0.00
2017,11,09,06,08,0.00
2017,11,09,06,09,0.00
2017,11,09,06,10,0.00
2017,11,09,06,11,0.00
2017,11,09,06,12,0.00
2017,11,09,06,13,0.00
2017,11,09,06,14,0.00
2017,11,09,06,15,0.00
2017,11,09,06,16,0.00
2017,11,09,06,17,0.00
2017,11,09,06,18,0.00
2017,11,09,06,19,0.00
2017,11,09,06,20,0.00
2017,11,09,06,21,0.00
2017,11,09,06,22,0.00
2017,11,09,06,23,0.00
2017,11,09,06,24,0.00
2017,11,09,06,25,0.00
2017,11,09,06,26,0.00
2017,11,09,06,27,0.00
2017,11,09,06,28,0.00
2017,11,09,06,29,0.00
2017,11,09,06,30,0.00
2017,11,09,06,31,0.00
2017,11,09,06,32,0.00
2017,11,09,06,33,0.00
2017,11,09,06,34,0.00
2017,11,09,06,35,0.00
2017,11,09,06,36,0.00
2017,11,09,06,37,0.00
2017,11,09,06,38,0.00
2017,11,09,06,39,0.00
2017,11,09,06,40,0.00
2017,11,09,06,41,0.00
2017,11,09,06,42,0.00
2017,11,09,06,43,0.00
2017,11,09,06,44,0.00
2017,11,09,06,45,0.00
2017,11,09,06,46,0.00
2017,11,09,06,47,0.00
2017,11,09,06,48,0.00
2017,11,09,06,49,0.00
2017,11,09,06,50,0.00
2017,11,09,06,51,0.00
2017,11,09,06,52,0.00
2017,11,09,06,53,0.00
2017,11,09,06,54,0.00
2017,11,09,06,55,0.00
2017,11,09,06,56,0.00
2017,11,09,06,57,0.00
2017,11,09,06,58,0.00
2017,11,09,06,59,0.00
2017,11,09,07,00,0.00
2017,11,09,07,01,0.00
2017,11,09,07,02,0.00
2017,11,09,07,03,0.00
2017,11,09,07,04,0.00
2017,11,09,07,05,0.00
2017,11,09,07,06,0.00
2017,11,09,07,07,0.00
2017,11,09,07,08,0.00
2017,11,09,07,09,0.00
2017,11,09,07,10,0.00
2017,11,09,07,11,0.00
2017,11,09,07,12,0.00
2017,11,09,07,13,0.00
2017,11,09,07,14,0.00
2017,11,09,07,15,0.00
2017,11,09,07,16,0.00
2017,11,09,07,17,0.00
2017,11,09,07,18,0.00
2017,11,09,07,19,0.00
2017,11,09,07,20,0.00
2017,11,09,07,21,0.00
2017,11,09,07,22,0.00
2017,11,09,07,23,0.00
2017,11,09,07,24,0.00
2017,11,09,07,25,0.00
2017,11,09,07,26,0.00
2017,11,09,07,27,0.00
2017,11,09,07,28,0.00
2017,11,09,07,29,0.00
2017,11,09,07,30,0.00
2017,11,09,07,31,0.00
2017,11,09,07,32,0.00
2017,11,09,07,33,0.00
2017,11,09,07,34,0.00
2017,11,09,07,35,0.00
2017,11,09,07,36,0.00
2017,11,09,07,37,0.00
2017,11,09,07,38,0.00
2017,11,09,07,39,0.00
2017,11,09,07,40,0.00
2017,11,09,07,41,0.00
2017,11,09,07,42,0.00
2017,11,09,07,43,0.00
2017,11,09,07,44,0.00
2017,11,09,07,45,4.70
2017,11,09,07,46,5.00
2017,11,09,07,47,5.00
2017,11,09,07,48,5.00
2017,11,09,07,49,5.00
2017,11,09,07,50,6.40
2017,11,09,07,51,7.00
2017,11,09,07,52,7.00
2017,11,09,07,53,7.00
2017,11,09,07,54,7.00
2017,11,09,07,55,7.00
2017,11,09,07,56,7.00
2017,11,09,07,57,7.00
2017,11,09,07,58,7.00
2017,11,09,07,59,7.00
2017,11,09,08,00,7.00
2017,11,09,08,01,7.00
2017,11,09,08,02,7.80
2017,11,09,08,03,9.00
2017,11,09,08,04,9.00
2017,11,09,08,05,9.00
2017,11,09,08,06,9.00
2017,11,09,08,07,9.30
2017,11,09,08,08,11.00
2017,11,09,08,09,11.00
2017,11,09,08,10,11.00
2017,11,09,08,11,11.00
2017,11,09,08,12,11.80
2017,11,09,08,13,12.00
2017,11,09,08,14,12.00
2017,11,09,08,15,12.00
2017,11,09,08,16,12.00
2017,11,09,08,17,13.00
2017,11,09,08,18,14.00
2017,11,09,08,19,15.60
2017,11,09,08,20,16.10
2017,11,09,08,21,18.00
2017,11,09,08,22,18.00
2017,11,09,08,23,18.00
2017,11,09,08,24,18.00
2017,11,09,08,25,16.60
2017,11,09,08,26,16.00
2017,11,09,08,27,15.90
2017,11,09,08,28,14.00
2017,11,09,08,29,14.00
2017,11,09,08,30,14.00
2017,11,09,08,31,14.00
2017,11,09,08,32,14.00
2017,11,09,08,33,14.00
2017,11,09,08,34,13.90
2017,11,09,08,35,12.00
2017,11,09,08,36,12.00
2017,11,09,08,37,12.00
2017,11,09,08,38,12.00
2017,11,09,08,39,13.40
2017,11,09,08,40,14.00
2017,11,09,08,41,15.90
2017,11,09,08,42,16.00
2017,11,09,08,43,16.00
2017,11,09,08,44,16.00
2017,11,09,08,45,16.00
2017,11,09,08,46,16.00
2017,11,09,08,47,16.00
2017,11,09,08,48,16.00
2017,11,09,08,49,16.00
2017,11,09,08,50,15.40
2017,11,09,08,51,14.00
2017,11,09,08,52,14.00
2017,11,09,08,53,14.00
2017,11,09,08,54,12.40
2017,11,09,08,55,12.10
2017,11,09,08,56,14.00
2017,11,09,08,57,14.00
2017,11,09,08,58,14.80
2017,11,09,08,59,17.10
2017,11,09,09,00,20.10
2017,11,09,09,01,24.30
2017,11,09,09,02,27.80
2017,11,09,09,03,30.30
2017,11,09,09,04,32.30
2017,11,09,09,05,33.00
2017,11,09,09,06,34.10
2017,11,09,09,07,37.60
2017,11,09,09,08,39.80
2017,11,09,09,09,43.70
2017,11,09,09,10,48.00
2017,11,09,09,11,53.90
2017,11,09,09,12,57.70
2017,11,09,09,13,61.10
2017,11,09,09,14,62.00
2017,11,09,09,15,58.80
2017,11,09,09,16,54.30
2017,11,09,09,17,50.70
2017,11,09,09,18,48.40
2017,11,09,09,19,46.60
2017,11,09,09,20,46.00
2017,11,09,09,21,46.00
2017,11,09,09,22,46.00
2017,11,09,09,23,45.90
2017,11,09,09,24,44.00
2017,11,09,09,25,43.40
2017,11,09,09,26,41.20
2017,11,09,09,27,41.10
2017,11,09,09,28,43.30
2017,11,09,09,29,44.00
2017,11,09,09,30,44.00
2017,11,09,09,31,44.00
2017,11,09,09,32,42.90
2017,11,09,09,33,38.80
2017,11,09,09,34,34.90
2017,11,09,09,35,31.00
2017,11,09,09,36,30.00
2017,11,09,09,37,30.10
2017,11,09,09,38,33.70
2017,11,09,09,39,37.90
2017,11,09,09,40,40.80
2017,11,09,09,41,40.90
2017,11,09,09,42,39.30
2017,11,09,09,43,37.40
2017,11,09,09,44,37.00
2017,11,09,09,45,37.30
2017,11,09,09,46,39.00
2017,11,09,09,47,39.40
2017,11,09,09,48,42.20
2017,11,09,09,49,46.10
2017,11,09,09,50,50.10
2017,11,09,09,51,50.90
2017,11,09,09,52,48.70
2017,11,09,09,53,46.10
2017,11,09,09,54,42.30
2017,11,09,09,55,39.40
2017,11,09,09,56,37.60
2017,11,09,09,57,37.00
2017,11,09,09,58,36.90
2017,11,09,09,59,34.70
2017,11,09,10,00,33.00
2017,11,09,10,01,33.00
2017,11,09,10,02,32.50
2017,11,09,10,03,32.70
2017,11,09,10,04,33.00
2017,11,09,10,05,34.90
2017,11,09,10,06,35.00
2017,11,09,10,07,35.60
2017,11,09,10,08,38.30
2017,11,09,10,09,43.30
2017,11,09,10,10,46.70
2017,11,09,10,11,47.00
2017,11,09,10,12,50.60
2017,11,09,10,13,51.30
2017,11,09,10,14,53.00
2017,11,09,10,15,51.30
2017,11,09,10,16,47.40
2017,11,09,10,17,46.70
2017,11,09,10,18,48.60
2017,11,09,10,19,50.90
2017,11,09,10,20,51.30
2017,11,09,10,21,53.30
2017,11,09,10,22,55.70
2017,11,09,10,23,56.90
2017,11,09,10,24,54.00
2017,11,09,10,25,51.40
2017,11,09,10,26,49.30
2017,11,09,10,27,51.30
2017,11,09,10,28,53.00
2017,11,09,10,29,53.00
2017,11,09,10,30,53.50
2017,11,09,10,31,54.00
2017,11,09,10,32,57.20
2017,11,09,10,33,61.60
2017,11,09,10,34,63.30
2017,11,09,10,35,66.40
2017,11,09,10,36,73.70
2017,11,09,10,37,85.60
2017,11,09,10,38,100.20
2017,11,09,10,39,108.20
2017,11,09,10,40,102.20
2017,11,09,10,41,91.40
2017,11,09,10,42,82.60
2017,11,09,10,43,78.20
2017,11,09,10,44,77.00
2017,11,09,10,45,76.30
2017,11,09,10,46,74.40
2017,11,09,10,47,72.10
2017,11,09,10,48,72.00
2017,11,09,10,49,73.20
2017,11,09,10,50,76.40
2017,11,09,10,51,79.20
2017,11,09,10,52,87.20
2017,11,09,10,53,98.20
2017,11,09,10,54,111.90
2017,11,09,10,55,120.40
2017,11,09,10,56,123.60
2017,11,09,10,57,125.80
2017,11,09,10,58,127.00
2017,11,09,10,59,125.70
2017,11,09,11,00,121.80
2017,11,09,11,01,113.30
2017,11,09,11,02,104.80
2017,11,09,11,03,102.90
2017,11,09,11,04,96.30
2017,11,09,11,05,88.20
2017,11,09,11,06,84.00
2017,11,09,11,07,79.80
2017,11,09,11,08,74.30
2017,11,09,11,09,68.00
2017,11,09,11,10,62.70
2017,11,09,11,11,62.00
2017,11,09,11,12,62.60
2017,11,09,11,13,64.40
2017,11,09,11,14,66.60
2017,11,09,11,15,65.10
2017,11,09,11,16,61.00
2017,11,09,11,17,55.40
2017,11,09,11,18,54.80
2017,11,09,11,19,58.20
2017,11,09,11,20,62.10
2017,11,09,11,21,66.10
2017,11,09,11,22,75.10
2017,11,09,11,23,76.50
2017,11,09,11,24,72.90
2017,11,09,11,25,69.60
2017,11,09,11,26,67.90
2017,11,09,11,27,64.30
2017,11,09,11,28,62.20
2017,11,09,11,29,60.20
2017,11,09,11,30,60.30
2017,11,09,11,31,62.00
2017,11,09,11,32,62.00
2017,11,09,11,33,60.90
2017,11,09,11,34,58.60
2017,11,09,11,35,54.80
2017,11,09,11,36,53.00
2017,11,09,11,37,49.00
2017,11,09,11,38,48.40
2017,11,09,11,39,46.60
2017,11,09,11,40,44.90
2017,11,09,11,41,44.00
2017,11,09,11,42,45.60
2017,11,09,11,43,50.80
2017,11,09,11,44,55.10
2017,11,09,11,45,60.60
2017,11,09,11,46,62.40
2017,11,09,11,47,62.50
2017,11,09,11,48,60.70
2017,11,09,11,49,58.40
2017,11,09,11,50,60.00
2017,11,09,11,51,63.70
2017,11,09,11,52,67.60
2017,11,09,11,53,69.00
2017,11,09,11,54,67.90
2017,11,09,11,55,65.70
2017,11,09,11,56,62.60
2017,11,09,11,57,60.10
2017,11,09,11,58,59.70
2017,11,09,11,59,57.40
2017,11,09,12,00,56.80
2017,11,09,12,01,58.00
2017,11,09,12,02,56.60
2017,11,09,12,03,56.00
2017,11,09,12,04,57.90
2017,11,09,12,05,60.00
2017,11,09,12,06,60.60
2017,11,09,12,07,62.00
2017,11,09,12,08,63.60
2017,11,09,12,09,68.30
2017,11,09,12,10,75.60
2017,11,09,12,11,89.40
2017,11,09,12,12,101.20
2017,11,09,12,13,107.60
2017,11,09,12,14,109.00
2017,11,09,12,15,109.00
2017,11,09,12,16,109.00
2017,11,09,12,17,109.00
2017,11,09,12,18,113.10
2017,11,09,12,19,125.10
2017,11,09,12,20,138.40
2017,11,09,12,21,145.10
2017,11,09,12,22,139.00
2017,11,09,12,23,137.80
2017,11,09,12,24,140.60
2017,11,09,12,25,132.40
2017,11,09,12,26,116.80
2017,11,09,12,27,111.00
2017,11,09,12,28,114.90
2017,11,09,12,29,123.60
2017,11,09,12,30,125.70
2017,11,09,12,31,121.00
2017,11,09,12,32,120.00
2017,11,09,12,33,120.20
2017,11,09,12,34,122.20
2017,11,09,12,35,127.90
2017,11,09,12,36,132.00
2017,11,09,12,37,124.40
2017,11,09,12,38,121.00
2017,11,09,12,39,122.80
2017,11,09,12,40,120.50
2017,11,09,12,41,116.60
2017,11,09,12,42,109.70
2017,11,09,12,43,103.40
2017,11,09,12,44,99.40
2017,11,09,12,45,95.60
2017,11,09,12,46,93.00
2017,11,09,12,47,89.30
2017,11,09,12,48,86.00
2017,11,09,12,49,86.80
2017,11,09,12,50,89.70
2017,11,09,12,51,92.40
2017,11,09,12,52,94.60
2017,11,09,12,53,93.10
2017,11,09,12,54,90.50
2017,11,09,12,55,87.40
2017,11,09,12,56,85.20
2017,11,09,12,57,82.40
2017,11,09,12,58,78.40
2017,11,09,12,59,74.60
2017,11,09,13,00,69.20
2017,11,09,13,01,64.70
2017,11,09,13,02,63.00
2017,11,09,13,03,65.60
2017,11,09,13,04,71.80
2017,11,09,13,05,77.40
2017,11,09,13,06,80.60
2017,11,09,13,07,81.00
2017,11,09,13,08,80.30
2017,11,09,13,09,76.00
2017,11,09,13,10,74.30
2017,11,09,13,11,70.40
2017,11,09,13,12,65.10
2017,11,09,13,13,57.40
2017,11,09,13,14,53.20
2017,11,09,13,15,48.70
2017,11,09,13,16,47.00
2017,11,09,13,17,47.00
2017,11,09,13,18,46.50
2017,11,09,13,19,46.70
2017,11,09,13,20,47.00
2017,11,09,13,21,48.90
2017,11,09,13,22,49.30
2017,11,09,13,23,51.00
2017,11,09,13,24,51.00
2017,11,09,13,25,51.00
2017,11,09,13,26,52.40
2017,11,09,13,27,53.00
2017,11,09,13,28,53.90
2017,11,09,13,29,54.30
2017,11,09,13,30,56.60
2017,11,09,13,31,59.70
2017,11,09,13,32,63.70
2017,11,09,13,33,66.40
2017,11,09,13,34,69.40
2017,11,09,13,35,70.10
2017,11,09,13,36,71.70
2017,11,09,13,37,69.70
2017,11,09,13,38,68.20
2017,11,09,13,39,65.90
2017,11,09,13,40,63.70
2017,11,09,13,41,63.00
2017,11,09,13,42,63.30
2017,11,09,13,43,67.40
2017,11,09,13,44,71.70
2017,11,09,13,45,78.10
2017,11,09,13,46,83.80
2017,11,09,13,47,87.40
2017,11,09,13,48,88.00
2017,11,09,13,49,86.10
2017,11,09,13,50,84.30
2017,11,09,13,51,86.00
2017,11,09,13,52,87.70
2017,11,09,13,53,92.80
2017,11,09,13,54,99.80
2017,11,09,13,55,106.00
2017,11,09,13,56,112.50
2017,11,09,13,57,116.30
2017,11,09,13,58,118.00
2017,11,09,13,59,117.20
2017,11,09,14,00,114.30
2017,11,09,14,01,110.20
2017,11,09,14,02,105.90
2017,11,09,14,03,100.40
2017,11,09,14,04,96.00
2017,11,09,14,05,89.40
2017,11,09,14,06,83.90
2017,11,09,14,07,78.40
2017,11,09,14,08,73.40
2017,11,09,14,09,68.00
2017,11,09,14,10,64.90
2017,11,09,14,11,61.40
2017,11,09,14,12,56.60
2017,11,09,14,13,50.50
2017,11,09,14,14,45.30
2017,11,09,14,15,44.00
2017,11,09,14,16,44.00
2017,11,09,14,17,46.90
2017,11,09,14,18,49.30
2017,11,09,14,19,51.00
2017,11,09,14,20,51.00
2017,11,09,14,21,49.90
2017,11,09,14,22,47.60
2017,11,09,14,23,46.20
2017,11,09,14,24,44.10
2017,11,09,14,25,42.00
2017,11,09,14,26,41.40
2017,11,09,14,27,39.60
2017,11,09,14,28,38.00
2017,11,09,14,29,37.00
2017,11,09,14,30,35.40
2017,11,09,14,31,35.00
2017,11,09,14,32,35.00
2017,11,09,14,33,35.00
2017,11,09,14,34,35.00
2017,11,09,14,35,35.00
2017,11,09,14,36,33.70
2017,11,09,14,37,33.00
2017,11,09,14,38,32.10
2017,11,09,14,39,32.00
2017,11,09,14,40,32.00
2017,11,09,14,41,32.00
2017,11,09,14,42,32.00
2017,11,09,14,43,32.70
2017,11,09,14,44,33.00
2017,11,09,14,45,33.00
2017,11,09,14,46,33.30
2017,11,09,14,47,35.00
2017,11,09,14,48,35.80
2017,11,09,14,49,38.10
2017,11,09,14,50,39.00
2017,11,09,14,51,39.80
2017,11,09,14,52,39.90
2017,11,09,14,53,39.00
2017,11,09,14,54,39.00
2017,11,09,14,55,38.20
2017,11,09,14,56,37.00
2017,11,09,14,57,37.00
2017,11,09,14,58,35.40
2017,11,09,14,59,35.00
2017,11,09,15,00,35.40
2017,11,09,15,01,37.60
2017,11,09,15,02,39.40
2017,11,09,15,03,40.00
2017,11,09,15,04,40.00
2017,11,09,15,05,39.20
2017,11,09,15,06,38.90
2017,11,09,15,07,36.70
2017,11,09,15,08,35.00
2017,11,09,15,09,35.00
2017,11,09,15,10,35.00
2017,11,09,15,11,33.70
2017,11,09,15,12,33.00
2017,11,09,15,13,33.10
2017,11,09,15,14,35.00
2017,11,09,15,15,34.40
2017,11,09,15,16,33.00
2017,11,09,15,17,34.00
2017,11,09,15,18,35.00
2017,11,09,15,19,36.60
2017,11,09,15,20,39.90
2017,11,09,15,21,42.70
2017,11,09,15,22,46.00
2017,11,09,15,23,46.00
2017,11,09,15,24,46.00
2017,11,09,15,25,48.00
2017,11,09,15,26,53.00
2017,11,09,15,27,55.90
2017,11,09,15,28,56.00
2017,11,09,15,29,56.00
2017,11,09,15,30,56.00
2017,11,09,15,31,56.00
2017,11,09,15,32,54.70
2017,11,09,15,33,50.00
2017,11,09,15,34,42.30
2017,11,09,15,35,37.00
2017,11,09,15,36,37.60
2017,11,09,15,37,39.40
2017,11,09,15,38,42.10
2017,11,09,15,39,45.30
2017,11,09,15,40,44.40
2017,11,09,15,41,40.20
2017,11,09,15,42,36.70
2017,11,09,15,43,35.00
2017,11,09,15,44,34.20
2017,11,09,15,45,32.50
2017,11,09,15,46,30.70
2017,11,09,15,47,28.40
2017,11,09,15,48,28.10
2017,11,09,15,49,30.00
2017,11,09,15,50,30.00
2017,11,09,15,51,30.00
2017,11,09,15,52,30.00
2017,11,09,15,53,30.00
2017,11,09,15,54,31.60
2017,11,09,15,55,33.00
2017,11,09,15,56,37.00
2017,11,09,15,57,36.40
2017,11,09,15,58,35.00
2017,11,09,15,59,35.00
2017,11,09,16,00,35.00
2017,11,09,16,01,36.60
2017,11,09,16,02,37.00
2017,11,09,16,03,37.00
2017,11,09,16,04,37.00
2017,11,09,16,05,37.00
2017,11,09,16,06,37.00
2017,11,09,16,07,35.70
2017,11,09,16,08,33.40
2017,11,09,16,09,31.90
2017,11,09,16,10,27.70
2017,11,09,16,11,25.10
2017,11,09,16,12,21.30
2017,11,09,16,13,18.50
2017,11,09,16,14,18.00
2017,11,09,16,15,16.40
2017,11,09,16,16,15.90
2017,11,09,16,17,14.00
2017,11,09,16,18,13.40
2017,11,09,16,19,12.00
2017,11,09,16,20,11.40
2017,11,09,16,21,11.00
2017,11,09,16,22,11.80
2017,11,09,16,23,12.00
2017,11,09,16,24,11.80
2017,11,09,16,25,11.00
2017,11,09,16,26,11.00
2017,11,09,16,27,9.90
2017,11,09,16,28,9.00
2017,11,09,16,29,9.00
2017,11,09,16,30,7.20
2017,11,09,16,31,6.70
2017,11,09,16,32,5.00
2017,11,09,16,33,5.00
2017,11,09,16,34,5.00
2017,11,09,16,35,1.60
2017,11,09,16,36,0.00
2017,11,09,16,37,0.00
2017,11,09,16,38,0.00
2017,11,09,16,39,0.00
2017,11,09,16,40,0.00
2017,11,09,16,41,0.00
2017,11,09,16,42,0.00
2017,11,09,16,43,0.00
2017,11,09,16,44,0.00
2017,11,09,16,45,0.00
2017,11,09,16,46,0.00
2017,11,09,16,47,0.00
2017,11,09,16,48,0.00
2017,11,09,16,49,0.00
2017,11,09,16,50,0.00
2017,11,09,16,51,0.00
2017,11,09,16,52,0.00
2017,11,09,16,53,0.00
2017,11,09,16,54,0.00
2017,11,09,16,55,0.00
2017,11,09,16,56,0.00
2017,11,09,16,57,0.00
2017,11,09,16,58,0.00
2017,11,09,16,59,0.00
2017,11,09,17,00,0.00
2017,11,09,17,01,0.00
2017,11,09,17,02,0.00
2017,11,09,17,03,0.00
2017,11,09,17,04,0.00
2017,11,09,17,05,0.00
2017,11,09,17,06,0.00
2017,11,09,17,07,0.00
2017,11,09,17,08,0.00
2017,11,09,17,09,0.00
2017,11,09,17,10,0.00
2017,11,09,17,11,0.00
2017,11,09,17,12,0.00
2017,11,09,17,13,0.00
2017,11,09,17,14,0.00
2017,11,09,17,15,0.00
2017,11,09,17,16,0.00
2017,11,09,17,17,0.00
2017,11,09,17,18,0.00
2017,11,09,17,19,0.00
2017,11,09,17,20,0.00
2017,11,09,17,21,0.00
2017,11,09,17,22,0.00
2017,11,09,17,23,0.00
2017,11,09,17,24,0.00
2017,11,09,17,25,0.00
2017,11,09,17,26,0.00
2017,11,09,17,27,0.00
2017,11,09,17,28,0.00
2017,11,09,17,29,0.00
2017,11,09,17,30,0.00
2017,11,09,17,31,0.00
2017,11,09,17,32,0.00
2017,11,09,17,33,0.00
2017,11,09,17,34,0.00
2017,11,09,17,35,0.00
2017,11,09,17,36,0.00
2017,11,09,17,37,0.00
2017,11,09,17,38,0.00
2017,11,09,17,39,0.00
2017,11,09,17,40,0.00
2017,11,09,17,41,0.00